BAW317 KMCO-EGLL

Flight info

Callsign BAW317
Flight time 8h 23m
Altitude 35000
Route JEEMY4 PAINN SHRKS BERTT GURGE RAYVO Q87 NOWAE FAK BOOYA Q34 RBV Q22 LLUND BIZEX Q133 CAM BEEHS JIGZY TAFFY N693A NEEKO 5350N 5440N 5430N 5420N DOGAL BEXET ENJEX AVZAC INFEC JETZI AMFUL ORZEB P2 SIRIC
Aircraft A35K/H-SDE2E3GHIJ3J4J5LM1ORWXY/LB1D1

Departure

Time 2026-04-25 13:43
Airport Orlando International Airport (KMCO)

Arrival

Time 2026-04-25 22:06
Airport London Heathrow Airport (EGLL)
Time Latitude Longitude Altitude Speed Heading
2026-04-25 11:34 28.42679 -81.31413 100 ft 0 kts 333°
2026-04-25 13:20 28.42676 -81.31411 100 ft 3 kts 332°
2026-04-25 13:20 28.42654 -81.31396 99 ft 4 kts 332°
2026-04-25 13:20 28.42639 -81.31390 99 ft 3 kts 354°
2026-04-25 13:21 28.42612 -81.31388 101 ft 4 kts
2026-04-25 13:21 28.42585 -81.31389 99 ft 4 kts 354°
2026-04-25 13:21 28.42564 -81.31384 100 ft 4 kts 323°
2026-04-25 13:21 28.42550 -81.31369 99 ft 4 kts 294°
2026-04-25 13:22 28.42546 -81.31346 99 ft 4 kts 263°
2026-04-25 13:22 28.42550 -81.31318 100 ft 2 kts 257°
2026-04-25 13:22 28.42550 -81.31316 100 ft 0 kts 258°
2026-04-25 13:27 28.42549 -81.31322 100 ft 2 kts 258°
2026-04-25 13:27 28.42539 -81.31361 101 ft 6 kts 238°
2026-04-25 13:27 28.42499 -81.31357 103 ft 6 kts 150°
2026-04-25 13:27 28.42492 -81.31352 103 ft 0 kts 147°
2026-04-25 13:29 28.42488 -81.31349 103 ft 2 kts 147°
2026-04-25 13:29 28.42452 -81.31317 103 ft 8 kts 140°
2026-04-25 13:29 28.42404 -81.31286 103 ft 10 kts 168°
2026-04-25 13:30 28.42271 -81.31329 102 ft 11 kts 261°
2026-04-25 13:30 28.42268 -81.31437 102 ft 14 kts 269°
2026-04-25 13:30 28.42267 -81.31552 103 ft 15 kts 270°
2026-04-25 13:31 28.42265 -81.31787 105 ft 15 kts 269°
2026-04-25 13:31 28.42289 -81.31826 105 ft 5 kts 351°
2026-04-25 13:31 28.42342 -81.31832 106 ft 11 kts 358°
2026-04-25 13:31 28.42433 -81.31833 106 ft 14 kts 360°
2026-04-25 13:32 28.42530 -81.31833 107 ft 14 kts 360°
2026-04-25 13:32 28.42632 -81.31834 108 ft 15 kts 359°
2026-04-25 13:32 28.42744 -81.31835 106 ft 17 kts 359°
2026-04-25 13:32 28.42870 -81.31836 104 ft 19 kts 359°
2026-04-25 13:33 28.43005 -81.31838 104 ft 20 kts 359°
2026-04-25 13:33 28.43137 -81.31841 104 ft 19 kts 359°
2026-04-25 13:33 28.43271 -81.31842 106 ft 20 kts 360°
2026-04-25 13:33 28.43363 -81.31842 105 ft 20 kts 359°
2026-04-25 13:34 28.43556 -81.31844 104 ft 21 kts 359°
2026-04-25 13:34 28.43699 -81.31846 104 ft 21 kts 360°
2026-04-25 13:34 28.43843 -81.31847 105 ft 16 kts 359°
2026-04-25 13:34 28.43956 -81.31867 104 ft 17 kts 344°
2026-04-25 13:35 28.44075 -81.31897 104 ft 18 kts 354°
2026-04-25 13:35 28.44201 -81.31900 104 ft 19 kts
2026-04-25 13:35 28.44332 -81.31903 104 ft 18 kts 358°
2026-04-25 13:35 28.44448 -81.31904 105 ft 12 kts 359°
2026-04-25 13:36 28.44466 -81.31905 105 ft 0 kts 359°
2026-04-25 13:37 28.44491 -81.31905 104 ft 7 kts 359°
2026-04-25 13:37 28.44556 -81.31906 105 ft 10 kts 360°
2026-04-25 13:37 28.44633 -81.31906 105 ft 12 kts 359°
2026-04-25 13:38 28.44724 -81.31907 104 ft 14 kts 360°
2026-04-25 13:38 28.44803 -81.31908 105 ft 6 kts 355°
2026-04-25 13:38 28.44818 -81.31934 104 ft 4 kts 284°
2026-04-25 13:38 28.44824 -81.31978 106 ft 8 kts 277°
2026-04-25 13:39 28.44825 -81.32045 105 ft 9 kts 270°
2026-04-25 13:39 28.44824 -81.32103 105 ft 0 kts 269°
2026-04-25 13:40 28.44824 -81.32133 105 ft 6 kts 269°
2026-04-25 13:40 28.44822 -81.32188 105 ft 8 kts 268°
2026-04-25 13:40 28.44802 -81.32232 105 ft 5 kts 210°
2026-04-25 13:40 28.44769 -81.32233 106 ft 5 kts 178°
2026-04-25 13:41 28.44762 -81.32232 105 ft 0 kts 179°
2026-04-25 13:42 28.44728 -81.32232 104 ft 23 kts 179°
2026-04-25 13:42 28.44351 -81.32227 105 ft 85 kts 179°
2026-04-25 13:42 28.43572 -81.32218 105 ft 138 kts 179°
2026-04-25 13:43 28.42462 -81.32205 244 ft 170 kts 180°
2026-04-25 13:43 28.41327 -81.32198 991 ft 159 kts 180°
2026-04-25 13:43 28.40206 -81.32242 1566 ft 163 kts 187°
2026-04-25 13:43 28.39096 -81.32549 1984 ft 175 kts 200°
2026-04-25 13:44 28.37917 -81.33132 2217 ft 195 kts 204°
2026-04-25 13:44 28.36650 -81.33877 2467 ft 215 kts 208°
2026-04-25 13:44 28.35301 -81.34809 2706 ft 239 kts 218°
2026-04-25 13:44 28.34102 -81.36202 3082 ft 254 kts 230°
2026-04-25 13:45 28.32968 -81.37775 3667 ft 261 kts 231°
2026-04-25 13:45 28.31862 -81.39431 4272 ft 266 kts 239°
2026-04-25 13:45 28.31246 -81.41409 4912 ft 268 kts 259°
2026-04-25 13:45 28.30959 -81.43505 5535 ft 271 kts 263°
2026-04-25 13:46 28.30745 -81.45640 6161 ft 273 kts 267°
2026-04-25 13:46 28.31040 -81.47767 6689 ft 275 kts 292°
2026-04-25 13:46 28.32100 -81.49556 6979 ft 274 kts 316°
2026-04-25 13:46 28.33557 -81.50953 7293 ft 275 kts 322°
2026-04-25 13:47 28.35091 -81.52260 7884 ft 277 kts 323°
2026-04-25 13:47 28.36741 -81.53381 8496 ft 278 kts 339°
2026-04-25 13:47 28.38629 -81.53860 9142 ft 280 kts 351°
2026-04-25 13:47 28.40576 -81.54104 9791 ft 283 kts 353°
2026-04-25 13:48 28.42541 -81.54308 10386 ft 285 kts 353°
2026-04-25 13:48 28.43848 -81.54440 10766 ft 286 kts 353°
2026-04-25 13:48 28.46506 -81.54709 11593 ft 288 kts 353°
2026-04-25 13:48 28.47827 -81.54831 11995 ft 289 kts 355°
2026-04-25 13:49 28.49873 -81.54700 12460 ft 302 kts
2026-04-25 13:49 28.51990 -81.54197 12813 ft 320 kts 11°
2026-04-25 13:49 28.54197 -81.53568 13153 ft 335 kts 12°
2026-04-25 13:49 28.56506 -81.52889 13487 ft 349 kts 12°
2026-04-25 13:50 28.58900 -81.52180 13801 ft 363 kts 12°
2026-04-25 13:50 28.61386 -81.51440 14070 ft 375 kts 12°
2026-04-25 13:50 28.63947 -81.50676 14447 ft 383 kts 12°
2026-04-25 13:50 28.66538 -81.49901 14908 ft 388 kts 12°
2026-04-25 13:51 28.69167 -81.49115 15396 ft 392 kts 12°
2026-04-25 13:51 28.71822 -81.48320 15822 ft 396 kts 12°
2026-04-25 13:51 28.74482 -81.47524 15967 ft 397 kts 12°
2026-04-25 13:51 28.77163 -81.46721 15982 ft 398 kts 12°
2026-04-25 13:52 28.79846 -81.45917 15978 ft 399 kts 12°
2026-04-25 13:52 28.82529 -81.45115 15979 ft 399 kts 12°
2026-04-25 13:52 28.85212 -81.44317 15981 ft 399 kts 12°
2026-04-25 13:52 28.87899 -81.43521 15976 ft 399 kts 12°
2026-04-25 13:53 28.90582 -81.42717 15987 ft 399 kts 12°
2026-04-25 13:53 28.93267 -81.41923 15992 ft 398 kts 11°
2026-04-25 13:53 28.96003 -81.41481 15993 ft 395 kts 358°
2026-04-25 13:53 28.98739 -81.41656 16045 ft 396 kts 352°
2026-04-25 13:54 29.01526 -81.41969 16261 ft 406 kts 353°
2026-04-25 13:54 29.04356 -81.42291 16696 ft 411 kts 352°
2026-04-25 13:54 29.07211 -81.42613 17194 ft 414 kts 352°
2026-04-25 13:54 29.10096 -81.42934 17674 ft 418 kts 352°
2026-04-25 13:55 29.12998 -81.43235 18168 ft 421 kts 353°
2026-04-25 13:55 29.15934 -81.43505 18602 ft 425 kts 353°
2026-04-25 13:55 29.18892 -81.43776 19066 ft 427 kts 353°
2026-04-25 13:55 29.21872 -81.44052 19558 ft 430 kts 353°
2026-04-25 13:56 29.24819 -81.44329 20045 ft 432 kts 353°
2026-04-25 13:56 29.27822 -81.44613 20531 ft 435 kts 353°
2026-04-25 13:56 29.30839 -81.44899 21030 ft 437 kts 353°
2026-04-25 13:56 29.33885 -81.45189 21520 ft 440 kts 353°
2026-04-25 13:57 29.36944 -81.45480 22013 ft 443 kts 353°
2026-04-25 13:57 29.39022 -81.45677 22343 ft 445 kts 353°
2026-04-25 13:57 29.43126 -81.46068 23013 ft 448 kts 353°
2026-04-25 13:57 29.46245 -81.46368 23534 ft 451 kts 353°
2026-04-25 13:58 29.49381 -81.46667 23950 ft 455 kts 354°
2026-04-25 13:58 29.52546 -81.46970 24367 ft 458 kts 354°
2026-04-25 13:58 29.55731 -81.47275 24816 ft 460 kts 354°
2026-04-25 13:58 29.58934 -81.47583 25257 ft 463 kts 354°
2026-04-25 13:59 29.62157 -81.47883 25697 ft 466 kts 354°
2026-04-25 13:59 29.65402 -81.48172 26140 ft 469 kts 355°
2026-04-25 13:59 29.68662 -81.48462 26577 ft 471 kts 355°
2026-04-25 13:59 29.71940 -81.48760 27015 ft 474 kts 355°
2026-04-25 14:00 29.75234 -81.49053 27447 ft 476 kts 355°
2026-04-25 14:00 29.78555 -81.49354 27841 ft 479 kts 355°
2026-04-25 14:00 29.81876 -81.49656 28250 ft 482 kts 355°
2026-04-25 14:00 29.85232 -81.49962 28629 ft 484 kts 355°
2026-04-25 14:01 29.88591 -81.50405 28981 ft 487 kts 350°
2026-04-25 14:01 29.91890 -81.51310 29435 ft 487 kts 345°
2026-04-25 14:01 29.95135 -81.52396 30013 ft 485 kts 343°
2026-04-25 14:01 29.98357 -81.53548 30472 ft 484 kts 343°
2026-04-25 14:02 30.01565 -81.54722 30855 ft 483 kts 343°
2026-04-25 14:02 30.04767 -81.55903 31245 ft 483 kts 343°
2026-04-25 14:02 30.07961 -81.57073 31637 ft 482 kts 343°
2026-04-25 14:02 30.10087 -81.57841 31905 ft 482 kts 343°
2026-04-25 14:03 30.14363 -81.59363 32411 ft 481 kts 343°
2026-04-25 14:03 30.17561 -81.60499 32789 ft 480 kts 343°
2026-04-25 14:03 30.20758 -81.61644 33168 ft 480 kts 343°
2026-04-25 14:03 30.23899 -81.62774 33511 ft 479 kts 343°
2026-04-25 14:04 30.27082 -81.63921 33897 ft 479 kts 343°
2026-04-25 14:04 30.30254 -81.65064 34196 ft 478 kts 343°
2026-04-25 14:04 30.33424 -81.66206 34541 ft 476 kts 342°
2026-04-25 14:04 30.36574 -81.67341 34859 ft 475 kts 342°
2026-04-25 14:05 30.39774 -81.68495 34951 ft 475 kts 342°
2026-04-25 14:05 30.46044 -81.70756 34972 ft 475 kts 342°
2026-04-25 14:06 30.52365 -81.73039 34954 ft 475 kts 342°
2026-04-25 14:06 30.58686 -81.75279 34957 ft 476 kts 346°
2026-04-25 14:07 30.65237 -81.76145 34971 ft 476 kts
2026-04-25 14:07 30.71822 -81.75548 34968 ft 477 kts
2026-04-25 14:08 30.78425 -81.74697 34960 ft 477 kts
2026-04-25 14:08 30.85023 -81.73828 34955 ft 477 kts
2026-04-25 14:09 30.91616 -81.72985 34960 ft 477 kts
2026-04-25 14:09 30.98212 -81.72157 34953 ft 476 kts
2026-04-25 14:10 31.04806 -81.71333 34955 ft 476 kts
2026-04-25 14:10 31.11402 -81.70505 34956 ft 477 kts
2026-04-25 14:11 31.17952 -81.69289 34959 ft 478 kts 14°
2026-04-25 14:11 31.24308 -81.67120 34958 ft 479 kts 15°
2026-04-25 14:12 31.30675 -81.64786 34959 ft 480 kts 16°
2026-04-25 14:12 31.37038 -81.62434 34958 ft 480 kts 16°
2026-04-25 14:13 31.43419 -81.60087 34959 ft 480 kts 16°
2026-04-25 14:13 31.49783 -81.57752 34955 ft 480 kts 16°
2026-04-25 14:14 31.56158 -81.55412 34958 ft 480 kts 16°
2026-04-25 14:14 31.62537 -81.53067 34950 ft 480 kts 16°
2026-04-25 14:15 31.68911 -81.50720 34945 ft 480 kts 16°
2026-04-25 14:15 31.75281 -81.48371 34943 ft 480 kts 16°
2026-04-25 14:16 31.81666 -81.46013 34944 ft 480 kts 16°
2026-04-25 14:16 31.88044 -81.43656 34943 ft 481 kts 16°
2026-04-25 14:17 31.94382 -81.41307 34940 ft 481 kts 16°
2026-04-25 14:17 32.00760 -81.38940 34940 ft 481 kts 16°
2026-04-25 14:18 32.07151 -81.36566 34950 ft 481 kts 16°
2026-04-25 14:18 32.13535 -81.34190 34951 ft 481 kts 16°
2026-04-25 14:19 32.19923 -81.31812 34952 ft 481 kts 16°
2026-04-25 14:19 32.26304 -81.29430 34947 ft 481 kts 16°
2026-04-25 14:20 32.32687 -81.27044 34943 ft 481 kts 16°
2026-04-25 14:20 32.39084 -81.24650 34937 ft 482 kts 16°
2026-04-25 14:21 32.45454 -81.22188 34929 ft 482 kts 20°
2026-04-25 14:21 32.51295 -81.18282 34936 ft 485 kts 35°
2026-04-25 14:22 32.56607 -81.13317 34926 ft 487 kts 37°
2026-04-25 14:22 32.61829 -81.08197 34928 ft 487 kts 38°
2026-04-25 14:23 32.67016 -81.03100 34927 ft 487 kts 38°
2026-04-25 14:23 32.72291 -80.97946 34926 ft 487 kts 38°
2026-04-25 14:24 32.77501 -80.92862 34933 ft 487 kts 38°
2026-04-25 14:24 32.82736 -80.87749 34938 ft 487 kts 38°
2026-04-25 14:25 32.87982 -80.82617 34947 ft 488 kts 38°
2026-04-25 14:25 32.93218 -80.77484 34951 ft 488 kts 38°
2026-04-25 14:26 32.98456 -80.72341 34953 ft 488 kts 38°
2026-04-25 14:26 33.03702 -80.67183 34950 ft 489 kts 38°
2026-04-25 14:27 33.08946 -80.62026 34949 ft 489 kts 38°
2026-04-25 14:27 33.14180 -80.56850 34942 ft 489 kts 38°
2026-04-25 14:28 33.19416 -80.51671 34921 ft 489 kts 38°
2026-04-25 14:28 33.24625 -80.46519 34928 ft 489 kts 39°
2026-04-25 14:29 33.29848 -80.41318 34920 ft 489 kts 39°
2026-04-25 14:29 33.35077 -80.36122 34923 ft 489 kts 39°
2026-04-25 14:30 33.40309 -80.30927 34932 ft 489 kts 39°
2026-04-25 14:30 33.48155 -80.23119 34941 ft 489 kts 39°
2026-04-25 14:31 33.53384 -80.17898 34943 ft 489 kts 39°
2026-04-25 14:31 33.58608 -80.12672 34942 ft 489 kts 39°
2026-04-25 14:32 33.63894 -80.07543 34938 ft 489 kts 33°
2026-04-25 14:32 33.69790 -80.03497 34937 ft 487 kts 27°
2026-04-25 14:33 33.75828 -79.99792 34943 ft 487 kts 26°
2026-04-25 14:33 33.81898 -79.96131 34943 ft 488 kts 25°
2026-04-25 14:34 33.87911 -79.92485 34934 ft 488 kts 26°
2026-04-25 14:34 33.92984 -79.89388 34929 ft 488 kts 26°
2026-04-25 14:35 34.00025 -79.85083 34926 ft 488 kts 26°
2026-04-25 14:35 34.05093 -79.81978 34930 ft 488 kts 26°
2026-04-25 14:36 34.11152 -79.78258 34929 ft 488 kts 26°
2026-04-25 14:36 34.17171 -79.74553 34941 ft 489 kts 26°
2026-04-25 14:37 34.23230 -79.70829 34936 ft 489 kts 26°
2026-04-25 14:37 34.29305 -79.67100 34934 ft 490 kts 26°
2026-04-25 14:38 34.35382 -79.63353 34927 ft 490 kts 26°
2026-04-25 14:38 34.41455 -79.59584 34919 ft 490 kts 26°
2026-04-25 14:39 34.47522 -79.55813 34923 ft 490 kts 26°
2026-04-25 14:39 34.53607 -79.52043 34915 ft 491 kts 26°
2026-04-25 14:40 34.59656 -79.48190 34920 ft 491 kts 27°
2026-04-25 14:40 34.65619 -79.44122 34917 ft 492 kts 28°
2026-04-25 14:41 34.71583 -79.40036 34929 ft 492 kts 28°
2026-04-25 14:41 34.77563 -79.35968 34928 ft 493 kts 28°
2026-04-25 14:42 34.82544 -79.32599 34923 ft 493 kts 28°
2026-04-25 14:42 34.89554 -79.27843 34911 ft 493 kts 28°
2026-04-25 14:43 34.95555 -79.23760 34905 ft 494 kts 28°
2026-04-25 14:43 35.01553 -79.19673 34893 ft 494 kts 28°
2026-04-25 14:44 35.07553 -79.15581 34897 ft 494 kts 28°
2026-04-25 14:44 35.13561 -79.11477 34899 ft 495 kts 28°
2026-04-25 14:45 35.19564 -79.07368 34899 ft 495 kts 28°
2026-04-25 14:45 35.25538 -79.03271 34897 ft 495 kts 28°
2026-04-25 14:46 35.31598 -78.99111 34898 ft 496 kts 28°
2026-04-25 14:46 35.37564 -78.95006 34911 ft 496 kts 28°
2026-04-25 14:47 35.42614 -78.91527 34917 ft 497 kts 28°
2026-04-25 14:47 35.49612 -78.86702 34914 ft 497 kts 27°
2026-04-25 14:48 35.55645 -78.82526 34910 ft 497 kts 27°
2026-04-25 14:48 35.61676 -78.78347 34905 ft 498 kts 27°
2026-04-25 14:49 35.67718 -78.74159 34899 ft 498 kts 27°
2026-04-25 14:49 35.73758 -78.69953 34901 ft 499 kts 27°
2026-04-25 14:50 35.79800 -78.65743 34903 ft 499 kts 27°
2026-04-25 14:50 35.85859 -78.61515 34902 ft 500 kts 27°
2026-04-25 14:51 35.91911 -78.57287 34900 ft 500 kts 27°
2026-04-25 14:51 35.97957 -78.53052 34907 ft 500 kts 27°
2026-04-25 14:52 36.03973 -78.48831 34915 ft 500 kts 27°
2026-04-25 14:52 36.09038 -78.45273 34913 ft 501 kts 27°
2026-04-25 14:53 36.16076 -78.40322 34910 ft 501 kts 27°
2026-04-25 14:53 36.22128 -78.36055 34892 ft 501 kts 26°
2026-04-25 14:54 36.28183 -78.31776 34889 ft 501 kts 26°
2026-04-25 14:54 36.34235 -78.27491 34893 ft 501 kts 26°
2026-04-25 14:55 36.40555 -78.24042 34882 ft 494 kts 14°
2026-04-25 14:55 36.47121 -78.21538 34906 ft 494 kts 13°
2026-04-25 14:56 36.53727 -78.19174 34922 ft 493 kts 12°
2026-04-25 14:56 36.60325 -78.16816 34937 ft 494 kts 12°
2026-04-25 14:57 36.66926 -78.14429 34946 ft 494 kts 12°
2026-04-25 14:57 36.73533 -78.12026 34946 ft 494 kts 12°
2026-04-25 14:58 36.80091 -78.09634 34937 ft 494 kts 12°
2026-04-25 14:58 36.86700 -78.07222 34922 ft 495 kts 12°
2026-04-25 14:59 36.93351 -78.04790 34885 ft 495 kts 12°
2026-04-25 14:59 36.99919 -78.02384 34889 ft 495 kts 12°
2026-04-25 15:00 37.06530 -77.99958 34888 ft 495 kts 12°
2026-04-25 15:00 37.13141 -77.97525 34889 ft 496 kts 12°
2026-04-25 15:01 37.19758 -77.95086 34887 ft 496 kts 12°
2026-04-25 15:01 37.26383 -77.92642 34889 ft 496 kts 12°
2026-04-25 15:02 37.33006 -77.90194 34890 ft 496 kts 12°
2026-04-25 15:02 37.39634 -77.87738 34905 ft 497 kts 11°
2026-04-25 15:03 37.46267 -77.85277 34905 ft 497 kts 11°
2026-04-25 15:03 37.52874 -77.82712 34914 ft 500 kts 16°
2026-04-25 15:04 37.59343 -77.79458 34920 ft 501 kts 17°
2026-04-25 15:04 37.65787 -77.76073 34929 ft 502 kts 18°
2026-04-25 15:05 37.72225 -77.72667 34927 ft 502 kts 17°
2026-04-25 15:06 37.80803 -77.68133 34931 ft 502 kts 17°
2026-04-25 15:06 37.88338 -77.64150 34932 ft 502 kts 17°
2026-04-25 15:07 37.94787 -77.60736 34932 ft 502 kts 17°
2026-04-25 15:07 38.01233 -77.57316 34930 ft 502 kts 17°
2026-04-25 15:08 38.07681 -77.53887 34933 ft 502 kts 17°
2026-04-25 15:08 38.14121 -77.50456 34930 ft 502 kts 17°
2026-04-25 15:09 38.20555 -77.47022 34924 ft 502 kts 17°
2026-04-25 15:09 38.30171 -77.41878 34925 ft 501 kts 17°
2026-04-25 15:10 38.36590 -77.38390 34951 ft 504 kts 20°
2026-04-25 15:10 38.42459 -77.33348 34959 ft 517 kts 39°
2026-04-25 15:11 38.44968 -77.30058 34966 ft 520 kts 42°
2026-04-25 15:11 38.49814 -77.23150 34965 ft 522 kts 44°
2026-04-25 15:12 38.56986 -77.12664 34962 ft 522 kts 44°
2026-04-25 15:12 38.60190 -77.08000 34940 ft 522 kts 44°
2026-04-25 15:13 38.68969 -76.95249 34967 ft 521 kts 44°
2026-04-25 15:14 38.73753 -76.88284 34961 ft 521 kts 44°
2026-04-25 15:14 38.78537 -76.81309 34964 ft 520 kts 44°
2026-04-25 15:15 38.83279 -76.74372 34963 ft 520 kts 44°
2026-04-25 15:15 38.88038 -76.67387 34969 ft 520 kts 44°
2026-04-25 15:16 38.92821 -76.60352 34993 ft 519 kts 44°
2026-04-25 15:16 38.99895 -76.49928 34998 ft 519 kts 44°
2026-04-25 15:17 39.07006 -76.39414 34991 ft 518 kts 44°
2026-04-25 15:18 39.11733 -76.32405 35012 ft 518 kts 44°
2026-04-25 15:18 39.18806 -76.21887 35015 ft 518 kts 44°
2026-04-25 15:19 39.21960 -76.17187 35004 ft 517 kts 44°
2026-04-25 15:19 39.27469 -76.08966 35011 ft 517 kts 44°
2026-04-25 15:20 39.32161 -76.01943 35015 ft 517 kts 44°
2026-04-25 15:20 39.36832 -75.94928 35067 ft 515 kts 44°
2026-04-25 15:21 39.39130 -75.91466 35608 ft 506 kts 44°
2026-04-25 15:21 39.41397 -75.88044 36262 ft 497 kts 43°
2026-04-25 15:21 39.43638 -75.84662 36715 ft 493 kts 43°
2026-04-25 15:21 39.45870 -75.81299 36977 ft 493 kts 43°
2026-04-25 15:22 39.50329 -75.74576 37034 ft 491 kts 43°
2026-04-25 15:22 39.54770 -75.67865 37036 ft 491 kts 43°
2026-04-25 15:23 39.59206 -75.61139 37035 ft 491 kts 43°
2026-04-25 15:23 39.63635 -75.54406 37040 ft 490 kts 43°
2026-04-25 15:24 39.68012 -75.47600 37036 ft 493 kts 46°
2026-04-25 15:24 39.71380 -75.41595 37033 ft 495 kts 49°
2026-04-25 15:25 39.76005 -75.33038 37060 ft 495 kts 49°
2026-04-25 15:25 39.80011 -75.25770 37070 ft 494 kts 48°
2026-04-25 15:26 39.84043 -75.18543 37063 ft 494 kts 48°
2026-04-25 15:26 39.88082 -75.11311 37068 ft 493 kts 48°
2026-04-25 15:27 39.92110 -75.04079 37078 ft 493 kts 48°
2026-04-25 15:28 39.98113 -74.93250 37084 ft 493 kts 49°
2026-04-25 15:28 40.01946 -74.85831 37084 ft 495 kts 51°
2026-04-25 15:29 40.05705 -74.78309 37084 ft 494 kts 51°
2026-04-25 15:29 40.09477 -74.70806 37082 ft 493 kts 50°
2026-04-25 15:30 40.13257 -74.63335 37084 ft 493 kts 50°
2026-04-25 15:30 40.17044 -74.55855 37085 ft 493 kts 50°
2026-04-25 15:31 40.21176 -74.48832 37087 ft 480 kts 37°
2026-04-25 15:31 40.26161 -74.43121 37093 ft 475 kts 32°
2026-04-25 15:32 40.31232 -74.37705 37092 ft 474 kts 32°
2026-04-25 15:32 40.36361 -74.32268 37081 ft 474 kts 32°
2026-04-25 15:33 40.43980 -74.24113 37113 ft 473 kts 32°
2026-04-25 15:33 40.49063 -74.18642 37117 ft 472 kts 32°
2026-04-25 15:34 40.54045 -74.13267 37121 ft 472 kts 32°
2026-04-25 15:34 40.58256 -74.08728 37120 ft 471 kts 32°
2026-04-25 15:35 40.66655 -73.99624 37150 ft 470 kts 32°
2026-04-25 15:36 40.74224 -73.91393 37121 ft 469 kts 32°
2026-04-25 15:36 40.79248 -73.85920 37121 ft 468 kts 32°
2026-04-25 15:37 40.84303 -73.80497 37120 ft 464 kts 28°
2026-04-25 15:37 40.89876 -73.76574 37121 ft 449 kts 14°
2026-04-25 15:38 40.95714 -73.73674 37122 ft 447 kts 13°
2026-04-25 15:38 41.01568 -73.70917 37121 ft 447 kts 13°
2026-04-25 15:39 41.07424 -73.68149 37119 ft 447 kts 13°
2026-04-25 15:39 41.13271 -73.65355 37120 ft 447 kts 13°
2026-04-25 15:40 41.17146 -73.63495 37123 ft 447 kts 13°
2026-04-25 15:40 41.24968 -73.59729 37134 ft 447 kts 13°
2026-04-25 15:41 41.30913 -73.57801 37139 ft 435 kts
2026-04-25 15:41 41.36889 -73.56864 37140 ft 434 kts 360°
2026-04-25 15:42 41.42895 -73.56069 37139 ft 434 kts 359°
2026-04-25 15:42 41.48909 -73.55283 37134 ft 434 kts 359°
2026-04-25 15:43 41.54921 -73.54479 37132 ft 434 kts 359°
2026-04-25 15:43 41.60943 -73.53661 37127 ft 434 kts 360°
2026-04-25 15:44 41.66960 -73.52842 37119 ft 435 kts 360°
2026-04-25 15:44 41.72980 -73.52018 37112 ft 435 kts 360°
2026-04-25 15:45 41.79002 -73.51194 37108 ft 435 kts 360°
2026-04-25 15:45 41.82992 -73.50648 37106 ft 435 kts 360°
2026-04-25 15:46 41.91044 -73.49544 37097 ft 435 kts 360°
2026-04-25 15:46 41.97071 -73.48716 37087 ft 435 kts 360°
2026-04-25 15:47 42.03086 -73.47888 37081 ft 435 kts 360°
2026-04-25 15:47 42.09111 -73.47058 37075 ft 435 kts 360°
2026-04-25 15:48 42.15133 -73.46225 37073 ft 435 kts 360°
2026-04-25 15:48 42.21160 -73.45391 37076 ft 435 kts 360°
2026-04-25 15:49 42.27183 -73.44554 37078 ft 435 kts
2026-04-25 15:49 42.33201 -73.43717 37082 ft 435 kts 360°
2026-04-25 15:50 42.39217 -73.42878 37080 ft 435 kts 360°
2026-04-25 15:50 42.45198 -73.42043 37083 ft 435 kts 360°
2026-04-25 15:51 42.49218 -73.41480 37079 ft 434 kts 360°
2026-04-25 15:51 42.57224 -73.40358 37081 ft 434 kts 360°
2026-04-25 15:52 42.63234 -73.39513 37105 ft 434 kts 360°
2026-04-25 15:52 42.69250 -73.38669 37104 ft 434 kts 360°
2026-04-25 15:53 42.75268 -73.37824 37108 ft 434 kts 360°
2026-04-25 15:53 42.81288 -73.36975 37102 ft 435 kts 360°
2026-04-25 15:54 42.87303 -73.36125 37100 ft 435 kts 360°
2026-04-25 15:54 42.93331 -73.35271 37103 ft 435 kts 360°
2026-04-25 15:55 42.99355 -73.34417 37098 ft 435 kts
2026-04-25 15:55 43.05383 -73.33690 37104 ft 434 kts 358°
2026-04-25 15:56 43.11412 -73.33113 37098 ft 434 kts 358°
2026-04-25 15:56 43.17441 -73.32523 37097 ft 435 kts 358°
2026-04-25 15:57 43.23481 -73.31903 37102 ft 435 kts 358°
2026-04-25 15:57 43.29522 -73.31271 37104 ft 435 kts 358°
2026-04-25 15:58 43.35563 -73.30637 37108 ft 435 kts 358°
2026-04-25 15:58 43.41607 -73.30003 37104 ft 436 kts 358°
2026-04-25 15:59 43.47656 -73.29367 37103 ft 436 kts 358°
2026-04-25 15:59 43.53702 -73.28730 37101 ft 436 kts 358°
2026-04-25 16:00 43.57715 -73.28306 37104 ft 436 kts 358°
2026-04-25 16:00 43.65772 -73.27454 37110 ft 436 kts 358°
2026-04-25 16:01 43.71824 -73.26813 37105 ft 436 kts 358°
2026-04-25 16:01 43.77884 -73.26170 37105 ft 437 kts 358°
2026-04-25 16:02 43.83946 -73.25526 37102 ft 436 kts 358°
2026-04-25 16:02 43.88982 -73.24984 37102 ft 436 kts 358°
2026-04-25 16:03 43.96014 -73.23898 37109 ft 442 kts
2026-04-25 16:03 44.01859 -73.20850 37109 ft 458 kts 23°
2026-04-25 16:04 44.06874 -73.15171 37103 ft 477 kts 43°
2026-04-25 16:04 44.10242 -73.08937 37104 ft 483 kts 48°
2026-04-25 16:05 44.14002 -73.01254 37113 ft 483 kts 49°
2026-04-25 16:06 44.19645 -72.89635 37131 ft 481 kts 49°
2026-04-25 16:06 44.23417 -72.81953 37144 ft 480 kts 48°
2026-04-25 16:07 44.27191 -72.74277 37138 ft 479 kts 48°
2026-04-25 16:07 44.30953 -72.66607 37145 ft 478 kts 48°
2026-04-25 16:08 44.34700 -72.58943 37142 ft 477 kts 48°
2026-04-25 16:08 44.38410 -72.51334 37135 ft 477 kts 48°
2026-04-25 16:09 44.42134 -72.43674 37127 ft 476 kts 48°
2026-04-25 16:09 44.45852 -72.36006 37129 ft 475 kts 48°
2026-04-25 16:10 44.49551 -72.28356 37122 ft 475 kts 48°
2026-04-25 16:10 44.53252 -72.20684 37131 ft 475 kts 48°
2026-04-25 16:11 44.56940 -72.13017 37122 ft 474 kts 48°
2026-04-25 16:11 44.60622 -72.05343 37123 ft 474 kts 48°
2026-04-25 16:12 44.64294 -71.97669 37122 ft 474 kts 48°
2026-04-25 16:12 44.67968 -71.89969 37127 ft 474 kts 48°
2026-04-25 16:13 44.71627 -71.82283 37111 ft 473 kts 48°
2026-04-25 16:13 44.75251 -71.74644 37129 ft 473 kts 48°
2026-04-25 16:14 44.78922 -71.66889 37129 ft 472 kts 48°
2026-04-25 16:14 44.82553 -71.59198 37138 ft 472 kts 48°
2026-04-25 16:15 44.86159 -71.51540 37132 ft 471 kts 48°
2026-04-25 16:15 44.89778 -71.43835 37133 ft 471 kts 49°
2026-04-25 16:16 44.93394 -71.36114 37132 ft 470 kts 49°
2026-04-25 16:16 44.96995 -71.28402 37136 ft 471 kts 49°
2026-04-25 16:17 45.00596 -71.20672 37133 ft 470 kts 49°
2026-04-25 16:17 45.04186 -71.12942 37140 ft 470 kts 49°
2026-04-25 16:18 45.07743 -71.05264 37130 ft 470 kts 49°
2026-04-25 16:18 45.11558 -70.97845 37142 ft 461 kts 41°
2026-04-25 16:19 45.15848 -70.91105 37135 ft 460 kts 40°
2026-04-25 16:19 45.20197 -70.84476 37135 ft 459 kts 40°
2026-04-25 16:20 45.26728 -70.74514 37135 ft 459 kts 40°
2026-04-25 16:21 45.33234 -70.64510 37129 ft 459 kts 41°
2026-04-25 16:21 45.37562 -70.57832 37139 ft 459 kts 41°
2026-04-25 16:22 45.41881 -70.51155 37132 ft 459 kts 41°
2026-04-25 16:22 45.46204 -70.44454 37141 ft 459 kts 41°
2026-04-25 16:23 45.50514 -70.37755 37137 ft 458 kts 41°
2026-04-25 16:23 45.54818 -70.31050 37140 ft 458 kts 41°
2026-04-25 16:24 45.59122 -70.24329 37129 ft 458 kts 42°
2026-04-25 16:24 45.63392 -70.17646 37138 ft 458 kts 42°
2026-04-25 16:25 45.67689 -70.10902 37122 ft 458 kts 42°
2026-04-25 16:25 45.71974 -70.04161 37132 ft 458 kts 42°
2026-04-25 16:26 45.76258 -69.97405 37117 ft 458 kts 42°
2026-04-25 16:26 45.80532 -69.90647 37132 ft 457 kts 43°
2026-04-25 16:27 45.84800 -69.83882 37123 ft 457 kts 43°
2026-04-25 16:27 45.89061 -69.77112 37125 ft 457 kts 43°
2026-04-25 16:28 45.93316 -69.70337 37121 ft 457 kts 43°
2026-04-25 16:28 45.97569 -69.63546 37122 ft 457 kts 43°
2026-04-25 16:29 46.01814 -69.56751 37125 ft 457 kts 43°
2026-04-25 16:29 46.06055 -69.49946 37125 ft 457 kts 43°
2026-04-25 16:30 46.10290 -69.43133 37119 ft 456 kts 44°
2026-04-25 16:30 46.14520 -69.36311 37122 ft 456 kts 44°
2026-04-25 16:31 46.18717 -69.29527 37120 ft 456 kts 44°
2026-04-25 16:31 46.22936 -69.22689 37122 ft 456 kts 44°
2026-04-25 16:32 46.27147 -69.15847 37120 ft 456 kts 44°
2026-04-25 16:32 46.31355 -69.08992 37117 ft 456 kts 44°
2026-04-25 16:33 46.35557 -69.02131 37115 ft 455 kts 44°
2026-04-25 16:33 46.39754 -68.95261 37116 ft 456 kts 44°
2026-04-25 16:34 46.43951 -68.88374 37111 ft 456 kts 45°
2026-04-25 16:34 46.48116 -68.81522 37114 ft 456 kts 45°
2026-04-25 16:35 46.52305 -68.74611 37111 ft 456 kts 45°
2026-04-25 16:35 46.56489 -68.67692 37113 ft 456 kts 45°
2026-04-25 16:36 46.60666 -68.60768 37099 ft 456 kts 45°
2026-04-25 16:36 46.64842 -68.53825 37112 ft 456 kts 45°
2026-04-25 16:37 46.69009 -68.46883 37115 ft 455 kts 45°
2026-04-25 16:37 46.73173 -68.39926 37111 ft 455 kts 45°
2026-04-25 16:38 46.77330 -68.32965 37099 ft 455 kts 46°
2026-04-25 16:38 46.81483 -68.25991 37093 ft 455 kts 46°
2026-04-25 16:39 46.85627 -68.19013 37070 ft 454 kts 46°
2026-04-25 16:39 46.89763 -68.12033 37069 ft 454 kts 46°
2026-04-25 16:40 46.93896 -68.05039 37065 ft 454 kts 46°
2026-04-25 16:40 46.98018 -67.98044 37071 ft 454 kts 46°
2026-04-25 16:41 47.02135 -67.91043 37074 ft 453 kts 46°
2026-04-25 16:41 47.08304 -67.80516 37079 ft 453 kts 46°
2026-04-25 16:42 47.12405 -67.73494 37084 ft 453 kts 46°
2026-04-25 16:42 47.16504 -67.66460 37088 ft 453 kts 46°
2026-04-25 16:43 47.20591 -67.59427 37072 ft 453 kts 47°
2026-04-25 16:43 47.24651 -67.52423 37079 ft 453 kts 47°
2026-04-25 16:44 47.28737 -67.45356 37084 ft 453 kts 47°
2026-04-25 16:44 47.32816 -67.38280 37080 ft 453 kts 47°
2026-04-25 16:45 47.36890 -67.31197 37081 ft 453 kts 47°
2026-04-25 16:45 47.40894 -67.24018 37082 ft 454 kts 49°
2026-04-25 16:46 47.44783 -67.16679 37076 ft 454 kts 50°
2026-04-25 16:46 47.47385 -67.11755 37079 ft 454 kts 49°
2026-04-25 16:47 47.52584 -67.01980 37074 ft 453 kts 49°
2026-04-25 16:47 47.56487 -66.94656 37075 ft 453 kts 49°
2026-04-25 16:48 47.60392 -66.87313 37074 ft 453 kts 50°
2026-04-25 16:48 47.64261 -66.80013 37077 ft 453 kts 50°
2026-04-25 16:49 47.68150 -66.72654 37074 ft 453 kts 50°
2026-04-25 16:49 47.72030 -66.65296 37073 ft 453 kts 50°
2026-04-25 16:50 47.75908 -66.57916 37071 ft 453 kts 50°
2026-04-25 16:50 47.79781 -66.50528 37071 ft 452 kts 50°
2026-04-25 16:51 47.83643 -66.43139 37070 ft 452 kts 50°
2026-04-25 16:51 47.86226 -66.38188 37068 ft 452 kts 50°
2026-04-25 16:52 47.91360 -66.28319 37067 ft 452 kts 50°
2026-04-25 16:52 47.95207 -66.20900 37062 ft 452 kts 51°
2026-04-25 16:53 48.00326 -66.10997 37062 ft 452 kts 51°
2026-04-25 16:54 48.04161 -66.03555 37052 ft 452 kts 51°
2026-04-25 16:54 48.07989 -65.96104 37053 ft 452 kts 51°
2026-04-25 16:55 48.11817 -65.88636 37042 ft 452 kts 51°
2026-04-25 16:55 48.15634 -65.81166 37048 ft 452 kts 51°
2026-04-25 16:56 48.19446 -65.73686 37040 ft 452 kts 51°
2026-04-25 16:56 48.23252 -65.66199 37045 ft 452 kts 51°
2026-04-25 16:57 48.27056 -65.58691 37028 ft 452 kts 51°
2026-04-25 16:57 48.30856 -65.51172 37047 ft 452 kts 52°
2026-04-25 16:58 48.34652 -65.43640 37038 ft 452 kts 52°
2026-04-25 16:58 48.38441 -65.36101 37039 ft 452 kts 52°
2026-04-25 16:59 48.42230 -65.28543 37036 ft 452 kts 52°
2026-04-25 16:59 48.46007 -65.20984 37040 ft 452 kts 52°
2026-04-25 17:00 48.49784 -65.13408 37035 ft 452 kts 52°
2026-04-25 17:00 48.53559 -65.05811 37044 ft 454 kts 52°
2026-04-25 17:01 48.57348 -64.98165 37037 ft 453 kts 52°
2026-04-25 17:01 48.61107 -64.90557 37040 ft 452 kts 52°
2026-04-25 17:02 48.64867 -64.82929 37036 ft 452 kts 53°
2026-04-25 17:02 48.68620 -64.75292 36742 ft 452 kts 53°
2026-04-25 17:02 48.69861 -64.72766 37037 ft 452 kts 53°
2026-04-25 17:03 48.72367 -64.67651 37030 ft 452 kts 53°
2026-04-25 17:03 48.76105 -64.59998 37029 ft 452 kts 53°
2026-04-25 17:04 48.79843 -64.52325 37024 ft 452 kts 53°
2026-04-25 17:04 48.83577 -64.44639 37022 ft 452 kts 53°
2026-04-25 17:05 48.87281 -64.36993 37029 ft 452 kts 53°
2026-04-25 17:05 48.92865 -64.25426 37029 ft 452 kts 53°
2026-04-25 17:06 48.96581 -64.17699 37025 ft 452 kts 53°
2026-04-25 17:06 49.00290 -64.09967 37022 ft 452 kts 53°
2026-04-25 17:07 49.03992 -64.02225 37019 ft 452 kts 54°
2026-04-25 17:07 49.07696 -63.94457 37013 ft 452 kts 54°
2026-04-25 17:08 49.11388 -63.86692 37006 ft 452 kts 54°
2026-04-25 17:08 49.15073 -63.78920 37200 ft 453 kts 54°
2026-04-25 17:09 49.16920 -63.75016 37445 ft 453 kts 54°
2026-04-25 17:09 49.18759 -63.71117 37691 ft 453 kts 54°
2026-04-25 17:09 49.20599 -63.67202 37915 ft 454 kts 54°
2026-04-25 17:09 49.22443 -63.63273 38001 ft 455 kts 54°
2026-04-25 17:10 49.26134 -63.55407 37995 ft 455 kts 54°
2026-04-25 17:10 49.29867 -63.47438 37989 ft 466 kts 54°
2026-04-25 17:11 49.33683 -63.39276 37987 ft 475 kts 54°
2026-04-25 17:11 49.37557 -63.30958 37986 ft 482 kts 54°
2026-04-25 17:12 49.41458 -63.22558 37983 ft 483 kts 54°
2026-04-25 17:12 49.45356 -63.14155 37980 ft 483 kts 54°
2026-04-25 17:13 49.47959 -63.08531 37981 ft 482 kts 54°
2026-04-25 17:13 49.53119 -62.97332 37976 ft 482 kts 54°
2026-04-25 17:14 49.56994 -62.88893 37975 ft 482 kts 54°
2026-04-25 17:14 49.60853 -62.80455 37976 ft 482 kts 55°
2026-04-25 17:15 49.64698 -62.71998 37973 ft 481 kts 55°
2026-04-25 17:15 49.68539 -62.63530 37963 ft 481 kts 55°
2026-04-25 17:16 49.72377 -62.55047 37965 ft 481 kts 55°
2026-04-25 17:16 49.76181 -62.46617 37950 ft 481 kts 55°
2026-04-25 17:17 49.80030 -62.38059 37945 ft 481 kts 55°
2026-04-25 17:17 49.83819 -62.29607 37938 ft 481 kts 55°
2026-04-25 17:18 49.87631 -62.21078 37933 ft 481 kts 55°
2026-04-25 17:18 49.91437 -62.12534 37931 ft 481 kts 56°
2026-04-25 17:19 49.95233 -62.03984 37919 ft 482 kts 56°
2026-04-25 17:19 49.99030 -61.95405 37913 ft 482 kts 56°
2026-04-25 17:20 50.02818 -61.86819 37909 ft 482 kts 56°
2026-04-25 17:20 50.06600 -61.78218 37907 ft 481 kts 56°
2026-04-25 17:21 50.10373 -61.69610 37906 ft 481 kts 56°
2026-04-25 17:21 50.14138 -61.60989 37906 ft 481 kts 56°
2026-04-25 17:22 50.16657 -61.55208 37905 ft 481 kts 56°
2026-04-25 17:22 50.21653 -61.43703 37903 ft 481 kts 56°
2026-04-25 17:23 50.25395 -61.35054 37901 ft 480 kts 56°
2026-04-25 17:23 50.29129 -61.26392 37900 ft 480 kts 56°
2026-04-25 17:24 50.32855 -61.17722 37897 ft 480 kts 56°
2026-04-25 17:24 50.36538 -61.09110 37902 ft 479 kts 54°
2026-04-25 17:25 50.40240 -61.00434 37901 ft 479 kts 54°
2026-04-25 17:25 50.43938 -60.91752 37903 ft 479 kts 54°
2026-04-25 17:26 50.47627 -60.83060 37902 ft 479 kts 54°
2026-04-25 17:26 50.51316 -60.74336 37897 ft 479 kts 54°
2026-04-25 17:27 50.54998 -60.65597 37896 ft 479 kts 54°
2026-04-25 17:27 50.57456 -60.59746 37893 ft 479 kts 54°
2026-04-25 17:28 50.62334 -60.48099 37891 ft 479 kts 54°
2026-04-25 17:28 50.65992 -60.39327 37893 ft 479 kts 54°
2026-04-25 17:29 50.69640 -60.30549 37885 ft 478 kts 55°
2026-04-25 17:29 50.73279 -60.21765 37889 ft 478 kts 55°
2026-04-25 17:30 50.76908 -60.12977 37889 ft 478 kts 55°
2026-04-25 17:30 50.80513 -60.04218 37884 ft 478 kts 55°
2026-04-25 17:31 50.84127 -59.95407 37878 ft 477 kts 55°
2026-04-25 17:31 50.87733 -59.86585 37879 ft 477 kts 55°
2026-04-25 17:32 50.91337 -59.77738 37879 ft 478 kts 55°
2026-04-25 17:32 50.94938 -59.68867 37876 ft 478 kts 55°
2026-04-25 17:33 50.98532 -59.59984 37876 ft 478 kts 55°
2026-04-25 17:33 51.02113 -59.51089 37872 ft 478 kts 56°
2026-04-25 17:34 51.05694 -59.42166 37870 ft 479 kts 55°
2026-04-25 17:34 51.09275 -59.33235 37866 ft 479 kts 56°
2026-04-25 17:35 51.12815 -59.24333 37865 ft 479 kts 56°
2026-04-25 17:35 51.16383 -59.15356 37865 ft 479 kts 56°
2026-04-25 17:36 51.19941 -59.06382 37861 ft 479 kts 56°
2026-04-25 17:36 51.23509 -58.97395 37860 ft 479 kts 56°
2026-04-25 17:37 51.27039 -58.88380 37854 ft 479 kts 57°
2026-04-25 17:37 51.30565 -58.79371 37856 ft 478 kts 57°
2026-04-25 17:38 51.32919 -58.73331 37849 ft 478 kts 57°
2026-04-25 17:38 51.37015 -58.62843 37847 ft 478 kts 57°
2026-04-25 17:39 51.40526 -58.53800 37845 ft 478 kts 57°
2026-04-25 17:39 51.44035 -58.44738 37843 ft 478 kts 57°
2026-04-25 17:40 51.47536 -58.35684 37844 ft 478 kts 57°
2026-04-25 17:40 51.51038 -58.26619 37838 ft 478 kts 57°
2026-04-25 17:41 51.54511 -58.17512 37833 ft 477 kts 58°
2026-04-25 17:41 51.57973 -58.08416 37832 ft 476 kts 58°
2026-04-25 17:42 51.61431 -57.99330 37830 ft 476 kts 57°
2026-04-25 17:42 51.64885 -57.90252 37827 ft 476 kts 58°
2026-04-25 17:43 51.68316 -57.81133 37832 ft 475 kts 58°
2026-04-25 17:43 51.71726 -57.72081 37823 ft 475 kts 58°
2026-04-25 17:44 51.75140 -57.62950 37823 ft 475 kts 58°
2026-04-25 17:44 51.78539 -57.53814 37819 ft 475 kts 58°
2026-04-25 17:45 51.81391 -57.46154 37820 ft 475 kts 58°
2026-04-25 17:45 51.85331 -57.35520 37819 ft 475 kts 58°
2026-04-25 17:46 51.88725 -57.26359 37819 ft 474 kts 58°
2026-04-25 17:46 51.92111 -57.17191 37818 ft 474 kts 58°
2026-04-25 17:47 51.95487 -57.07992 37823 ft 475 kts 58°
2026-04-25 17:47 51.98860 -56.98767 37827 ft 476 kts 58°
2026-04-25 17:48 52.03912 -56.84869 37830 ft 476 kts 58°
2026-04-25 17:49 52.07265 -56.75571 37829 ft 477 kts 58°
2026-04-25 17:49 52.10633 -56.66256 37832 ft 478 kts 58°
2026-04-25 17:50 52.13999 -56.56912 37833 ft 479 kts 58°
2026-04-25 17:50 52.17363 -56.47524 37831 ft 480 kts 59°
2026-04-25 17:51 52.20699 -56.38176 37828 ft 480 kts 59°
2026-04-25 17:51 52.24050 -56.28752 37822 ft 480 kts 59°
2026-04-25 17:52 52.27397 -56.19308 37813 ft 481 kts 59°
2026-04-25 17:52 52.30735 -56.09854 37802 ft 481 kts 59°
2026-04-25 17:53 52.34067 -56.00376 37798 ft 480 kts 59°
2026-04-25 17:53 52.37383 -55.90884 37798 ft 480 kts 59°
2026-04-25 17:54 52.40161 -55.80949 37801 ft 483 kts 72°
2026-04-25 17:54 52.41743 -55.70253 37798 ft 484 kts 76°
2026-04-25 17:55 52.43109 -55.59458 37783 ft 484 kts 76°
2026-04-25 17:55 52.44450 -55.48642 37783 ft 484 kts 76°
2026-04-25 17:56 52.45780 -55.37905 37785 ft 483 kts 77°
2026-04-25 17:56 52.47118 -55.27123 37768 ft 483 kts 76°
2026-04-25 17:57 52.48437 -55.16310 37755 ft 483 kts 77°
2026-04-25 17:57 52.49774 -55.05511 37746 ft 482 kts 76°
2026-04-25 17:58 52.51092 -54.94724 37740 ft 483 kts 77°
2026-04-25 17:58 52.52392 -54.83907 37731 ft 482 kts 77°
2026-04-25 17:59 52.53673 -54.73092 37728 ft 482 kts 77°
2026-04-25 17:59 52.54964 -54.62265 37719 ft 483 kts 77°
2026-04-25 18:00 52.56240 -54.51434 37712 ft 482 kts 77°
2026-04-25 18:00 52.57494 -54.40667 37706 ft 482 kts 77°
2026-04-25 18:01 52.58750 -54.29842 37706 ft 482 kts 77°
2026-04-25 18:01 52.60059 -54.18412 37696 ft 483 kts 77°
2026-04-25 18:02 52.61269 -54.07609 37686 ft 483 kts 78°
2026-04-25 18:02 52.62500 -53.96726 37682 ft 483 kts 77°
2026-04-25 18:03 52.63731 -53.85866 37677 ft 483 kts 77°
2026-04-25 18:03 52.64940 -53.74966 37676 ft 483 kts 78°
2026-04-25 18:04 52.66142 -53.64076 37672 ft 484 kts 78°
2026-04-25 18:04 52.67322 -53.53152 37659 ft 484 kts 78°
2026-04-25 18:05 52.68493 -53.42220 37658 ft 484 kts 78°
2026-04-25 18:05 52.69669 -53.31283 37656 ft 484 kts 78°
2026-04-25 18:06 52.70829 -53.20339 37654 ft 485 kts 78°
2026-04-25 18:06 52.71956 -53.09385 37642 ft 485 kts 78°
2026-04-25 18:07 52.73088 -52.98421 37639 ft 485 kts 79°
2026-04-25 18:07 52.74234 -52.87472 37632 ft 485 kts 78°
2026-04-25 18:08 52.75348 -52.76488 37630 ft 485 kts 79°
2026-04-25 18:08 52.76446 -52.65520 37626 ft 484 kts 79°
2026-04-25 18:09 52.77532 -52.54598 37621 ft 484 kts 79°
2026-04-25 18:09 52.78609 -52.43618 37618 ft 484 kts 79°
2026-04-25 18:10 52.79688 -52.32630 37617 ft 484 kts 79°
2026-04-25 18:10 52.80770 -52.21656 37610 ft 484 kts 79°
2026-04-25 18:11 52.81830 -52.10681 37607 ft 483 kts 80°
2026-04-25 18:11 52.82690 -52.01557 37601 ft 483 kts 80°
2026-04-25 18:12 52.83723 -51.90569 37600 ft 484 kts 80°
2026-04-25 18:12 52.84749 -51.79570 37592 ft 484 kts 80°
2026-04-25 18:13 52.85779 -51.68559 37589 ft 484 kts 80°
2026-04-25 18:13 52.86795 -51.57533 37582 ft 484 kts 80°
2026-04-25 18:14 52.88267 -51.40993 37577 ft 484 kts 81°
2026-04-25 18:14 52.89244 -51.30056 37583 ft 483 kts 81°
2026-04-25 18:15 52.90212 -51.18971 37575 ft 484 kts 81°
2026-04-25 18:15 52.91162 -51.08015 37572 ft 483 kts 81°
2026-04-25 18:16 52.92116 -50.96982 37568 ft 484 kts 81°
2026-04-25 18:17 52.93513 -50.80419 37565 ft 483 kts 81°
2026-04-25 18:17 52.94431 -50.69373 37564 ft 484 kts 82°
2026-04-25 18:18 52.95341 -50.58317 37558 ft 484 kts 81°
2026-04-25 18:18 52.96255 -50.47239 37556 ft 484 kts 81°
2026-04-25 18:19 52.97154 -50.36149 37557 ft 485 kts 82°
2026-04-25 18:19 52.98043 -50.25145 37549 ft 485 kts 82°
2026-04-25 18:20 52.98910 -50.14067 37548 ft 485 kts 82°
2026-04-25 18:20 52.99775 -50.02964 37544 ft 485 kts 82°
2026-04-25 18:21 53.01147 -49.92016 37546 ft 485 kts 77°
2026-04-25 18:21 53.02687 -49.81125 37545 ft 485 kts 76°
2026-04-25 18:22 53.04255 -49.70230 37543 ft 485 kts 76°
2026-04-25 18:22 53.05826 -49.59344 37540 ft 485 kts 76°
2026-04-25 18:23 53.07368 -49.48427 37535 ft 485 kts 77°
2026-04-25 18:23 53.08895 -49.37487 37537 ft 485 kts 77°
2026-04-25 18:24 53.10408 -49.26552 37532 ft 485 kts 77°
2026-04-25 18:24 53.11914 -49.15591 37537 ft 486 kts 77°
2026-04-25 18:25 53.13405 -49.04620 37534 ft 486 kts 78°
2026-04-25 18:25 53.14900 -48.93658 37534 ft 486 kts 77°
2026-04-25 18:26 53.16386 -48.82677 37534 ft 486 kts 78°
2026-04-25 18:26 53.17852 -48.71724 37534 ft 486 kts 78°
2026-04-25 18:27 53.19305 -48.60729 37535 ft 486 kts 78°
2026-04-25 18:27 53.20760 -48.49710 37535 ft 486 kts 78°
2026-04-25 18:28 53.22194 -48.38682 37531 ft 487 kts 78°
2026-04-25 18:28 53.23620 -48.27627 37531 ft 487 kts 78°
2026-04-25 18:29 53.25742 -48.11049 37533 ft 487 kts 78°
2026-04-25 18:30 53.28546 -47.88887 37531 ft 487 kts 78°
2026-04-25 18:30 53.29932 -47.77798 37528 ft 488 kts 79°
2026-04-25 18:31 53.31310 -47.66682 37530 ft 488 kts 79°
2026-04-25 18:31 53.32674 -47.55583 37532 ft 488 kts 79°
2026-04-25 18:32 53.34031 -47.44456 37530 ft 488 kts 79°
2026-04-25 18:32 53.35368 -47.33399 37533 ft 488 kts 79°
2026-04-25 18:33 53.36713 -47.22185 37533 ft 488 kts 79°
2026-04-25 18:33 53.38030 -47.11112 37533 ft 488 kts 79°
2026-04-25 18:34 53.39348 -46.99933 37534 ft 489 kts 79°
2026-04-25 18:34 53.40656 -46.88744 37533 ft 489 kts 79°
2026-04-25 18:35 53.41955 -46.77545 37536 ft 489 kts 80°
2026-04-25 18:35 53.43243 -46.66335 37540 ft 490 kts 80°
2026-04-25 18:36 53.44521 -46.55112 37540 ft 490 kts 80°
2026-04-25 18:36 53.45790 -46.43872 37541 ft 490 kts 80°
2026-04-25 18:37 53.47049 -46.32622 37542 ft 491 kts 80°
2026-04-25 18:37 53.48298 -46.21354 37547 ft 491 kts 80°
2026-04-25 18:38 53.49537 -46.10081 37546 ft 491 kts 81°
2026-04-25 18:38 53.50757 -45.98873 37551 ft 491 kts 81°
2026-04-25 18:39 53.51976 -45.87568 37552 ft 492 kts 81°
2026-04-25 18:39 53.53186 -45.76248 37551 ft 492 kts 81°
2026-04-25 18:40 53.54385 -45.64924 37551 ft 492 kts 81°
2026-04-25 18:40 53.55572 -45.53601 37554 ft 492 kts 81°
2026-04-25 18:41 53.56750 -45.42256 37560 ft 492 kts 81°
2026-04-25 18:41 53.57917 -45.30910 37563 ft 492 kts 81°
2026-04-25 18:42 53.58693 -45.23307 37560 ft 492 kts 81°
2026-04-25 18:42 53.60221 -45.08176 37563 ft 493 kts 82°
2026-04-25 18:43 53.61357 -44.96804 37566 ft 493 kts 82°
2026-04-25 18:43 53.62475 -44.85492 37565 ft 493 kts 82°
2026-04-25 18:44 53.63590 -44.74097 37568 ft 493 kts 82°
2026-04-25 18:44 53.64694 -44.62695 37581 ft 493 kts 82°
2026-04-25 18:45 53.65788 -44.51280 37577 ft 493 kts 82°
2026-04-25 18:45 53.66871 -44.39864 37581 ft 493 kts 83°
2026-04-25 18:46 53.67943 -44.28430 37586 ft 493 kts 83°
2026-04-25 18:46 53.69006 -44.16985 37584 ft 494 kts 83°
2026-04-25 18:47 53.70058 -44.05533 37594 ft 494 kts 83°
2026-04-25 18:47 53.71099 -43.94064 37601 ft 494 kts 83°
2026-04-25 18:48 53.72131 -43.82579 37595 ft 495 kts 83°
2026-04-25 18:48 53.73154 -43.71075 37601 ft 495 kts 83°
2026-04-25 18:49 53.74164 -43.59572 37601 ft 495 kts 83°
2026-04-25 18:49 53.75164 -43.48059 37606 ft 496 kts 84°
2026-04-25 18:50 53.76154 -43.36523 37610 ft 496 kts 84°
2026-04-25 18:50 53.77133 -43.24982 37610 ft 496 kts 84°
2026-04-25 18:51 53.77774 -43.17352 37615 ft 496 kts 84°
2026-04-25 18:51 53.79060 -43.01866 37622 ft 497 kts 84°
2026-04-25 18:52 53.80009 -42.90274 37623 ft 497 kts 84°
2026-04-25 18:52 53.80941 -42.78746 37624 ft 498 kts 84°
2026-04-25 18:53 53.81869 -42.67122 37628 ft 498 kts 84°
2026-04-25 18:53 53.82785 -42.55496 37630 ft 498 kts 85°
2026-04-25 18:54 53.84141 -42.38027 37637 ft 499 kts 85°
2026-04-25 18:55 53.85031 -42.26375 37641 ft 499 kts 85°
2026-04-25 18:55 53.85904 -42.14785 37642 ft 499 kts 85°
2026-04-25 18:56 53.86773 -42.03105 37644 ft 499 kts 85°
2026-04-25 18:56 53.87631 -41.91419 37646 ft 500 kts 85°
2026-04-25 18:57 53.88477 -41.79727 37650 ft 500 kts 85°
2026-04-25 18:57 53.89313 -41.68022 37657 ft 500 kts 86°
2026-04-25 18:58 53.90135 -41.56320 37656 ft 500 kts 86°
2026-04-25 18:58 53.91215 -41.40708 37657 ft 500 kts 86°
2026-04-25 18:59 53.92925 -41.15337 37667 ft 501 kts 86°
2026-04-25 19:00 53.93957 -40.99625 37672 ft 501 kts 86°
2026-04-25 19:01 53.95090 -40.81985 37675 ft 501 kts 86°
2026-04-25 19:01 53.95833 -40.70204 37685 ft 502 kts 86°
2026-04-25 19:02 53.96920 -40.52601 37691 ft 502 kts 87°
2026-04-25 19:03 53.97872 -40.36818 37696 ft 502 kts 87°
2026-04-25 19:03 53.98683 -40.23093 37695 ft 502 kts 87°
2026-04-25 19:04 53.99708 -40.05348 37696 ft 503 kts 87°
2026-04-25 19:05 54.00817 -39.81659 37711 ft 502 kts 89°
2026-04-25 19:06 54.01245 -39.69802 37712 ft 503 kts 89°
2026-04-25 19:06 54.01906 -39.52066 37719 ft 504 kts 89°
2026-04-25 19:07 54.02565 -39.34223 37722 ft 504 kts 89°
2026-04-25 19:08 54.03197 -39.16392 37723 ft 504 kts 90°
2026-04-25 19:09 54.03931 -38.94592 37731 ft 504 kts 90°
2026-04-25 19:10 54.04567 -38.74674 37736 ft 505 kts 90°
2026-04-25 19:10 54.04930 -38.62832 37743 ft 505 kts 90°
2026-04-25 19:11 54.05284 -38.50883 37741 ft 505 kts 90°
2026-04-25 19:11 54.05626 -38.38938 37745 ft 505 kts 90°
2026-04-25 19:12 54.05957 -38.26981 37754 ft 506 kts 90°
2026-04-25 19:12 54.06276 -38.15013 37754 ft 506 kts 90°
2026-04-25 19:13 54.06583 -38.03034 37753 ft 507 kts 90°
2026-04-25 19:13 54.06879 -37.91043 37759 ft 507 kts 90°
2026-04-25 19:14 54.07163 -37.79035 37761 ft 507 kts 91°
2026-04-25 19:14 54.07435 -37.67034 37764 ft 508 kts 91°
2026-04-25 19:15 54.07696 -37.54998 37765 ft 508 kts 91°
2026-04-25 19:15 54.07944 -37.42968 37766 ft 508 kts 91°
2026-04-25 19:16 54.08181 -37.30934 37773 ft 509 kts 91°
2026-04-25 19:16 54.08406 -37.18878 37776 ft 509 kts 91°
2026-04-25 19:17 54.08617 -37.06900 37778 ft 509 kts 91°
2026-04-25 19:17 54.08818 -36.94845 37783 ft 510 kts 91°
2026-04-25 19:18 54.09007 -36.82764 37784 ft 510 kts 91°
2026-04-25 19:18 54.09184 -36.70670 37792 ft 510 kts 91°
2026-04-25 19:19 54.09347 -36.58733 37792 ft 510 kts 91°
2026-04-25 19:19 54.09501 -36.46628 37797 ft 511 kts 92°
2026-04-25 19:20 54.09642 -36.34520 37795 ft 511 kts 92°
2026-04-25 19:20 54.09771 -36.22408 37801 ft 511 kts 92°
2026-04-25 19:21 54.09887 -36.10299 37802 ft 512 kts 92°
2026-04-25 19:21 54.10040 -35.92102 37805 ft 512 kts 92°
2026-04-25 19:22 54.10126 -35.80039 37809 ft 512 kts 92°
2026-04-25 19:23 54.10234 -35.61737 37823 ft 513 kts 92°
2026-04-25 19:23 54.10313 -35.43573 37825 ft 513 kts 92°
2026-04-25 19:24 54.10350 -35.31409 37827 ft 514 kts 92°
2026-04-25 19:25 54.10389 -35.07055 37830 ft 514 kts 92°
2026-04-25 19:25 54.10390 -34.94860 37839 ft 515 kts 92°
2026-04-25 19:26 54.10379 -34.82652 37842 ft 515 kts 93°
2026-04-25 19:26 54.10355 -34.70442 37845 ft 515 kts 93°
2026-04-25 19:27 54.10326 -34.60288 37851 ft 515 kts 93°
2026-04-25 19:27 54.10270 -34.46005 37852 ft 516 kts 93°
2026-04-25 19:28 54.10209 -34.33776 37858 ft 516 kts 93°
2026-04-25 19:28 54.10136 -34.21541 37859 ft 517 kts 93°
2026-04-25 19:29 54.10050 -34.09281 37862 ft 517 kts 93°
2026-04-25 19:29 54.09952 -33.97041 37862 ft 517 kts 93°
2026-04-25 19:30 54.09841 -33.84780 37871 ft 517 kts 93°
2026-04-25 19:30 54.09717 -33.72522 37869 ft 518 kts 93°
2026-04-25 19:31 54.09581 -33.60251 37874 ft 518 kts 94°
2026-04-25 19:31 54.09433 -33.47976 37878 ft 518 kts 94°
2026-04-25 19:32 54.09272 -33.35706 37878 ft 519 kts 94°
2026-04-25 19:32 54.09158 -33.27562 37876 ft 519 kts 94°
2026-04-25 19:33 54.08913 -33.11215 37892 ft 519 kts 94°
2026-04-25 19:33 54.08714 -32.98909 37894 ft 519 kts 94°
2026-04-25 19:34 54.08503 -32.86618 37888 ft 520 kts 94°
2026-04-25 19:34 54.08279 -32.74315 37889 ft 520 kts 94°
2026-04-25 19:35 54.08042 -32.62006 37905 ft 520 kts 94°
2026-04-25 19:35 54.07792 -32.49696 37898 ft 520 kts 94°
2026-04-25 19:36 54.07530 -32.37386 37896 ft 520 kts 94°
2026-04-25 19:36 54.07256 -32.25079 37912 ft 520 kts 94°
2026-04-25 19:37 54.06968 -32.12757 37915 ft 521 kts 94°
2026-04-25 19:37 54.06669 -32.00441 37897 ft 521 kts 94°
2026-04-25 19:38 54.06356 -31.88119 37912 ft 521 kts 94°
2026-04-25 19:38 54.06030 -31.75795 37908 ft 521 kts 94°
2026-04-25 19:39 54.05692 -31.63468 37920 ft 521 kts 95°
2026-04-25 19:39 54.05341 -31.51137 37915 ft 521 kts 95°
2026-04-25 19:40 54.04978 -31.38809 37920 ft 522 kts 95°
2026-04-25 19:40 54.04602 -31.26481 37924 ft 522 kts 95°
2026-04-25 19:41 54.04213 -31.14152 37927 ft 522 kts 95°
2026-04-25 19:41 54.03948 -31.05979 37929 ft 522 kts 95°
2026-04-25 19:42 54.03396 -30.89481 37928 ft 522 kts 95°
2026-04-25 19:42 54.02969 -30.77148 37931 ft 523 kts 95°
2026-04-25 19:43 54.02529 -30.64811 37926 ft 523 kts 95°
2026-04-25 19:43 54.02079 -30.52536 37933 ft 523 kts 95°
2026-04-25 19:44 54.01613 -30.40187 37934 ft 523 kts 95°
2026-04-25 19:44 54.01134 -30.27842 37936 ft 523 kts 95°
2026-04-25 19:45 54.00643 -30.15488 37943 ft 524 kts 95°
2026-04-25 19:45 54.00151 -30.03143 37939 ft 524 kts 94°
2026-04-25 19:46 54.00305 -29.92843 37942 ft 525 kts 88°
2026-04-25 19:46 54.00771 -29.80430 37947 ft 526 kts 87°
2026-04-25 19:47 54.01281 -29.68026 37949 ft 526 kts 87°
2026-04-25 19:47 54.01772 -29.55608 37950 ft 526 kts 87°
2026-04-25 19:48 54.02240 -29.43191 37953 ft 526 kts 87°
2026-04-25 19:48 54.02691 -29.30773 37954 ft 526 kts 87°
2026-04-25 19:49 54.03056 -29.20441 37950 ft 526 kts 88°
2026-04-25 19:49 54.03555 -29.05900 37958 ft 526 kts 88°
2026-04-25 19:50 54.04169 -28.87240 37954 ft 527 kts 88°
2026-04-25 19:51 54.04563 -28.74801 37959 ft 527 kts 88°
2026-04-25 19:51 54.04945 -28.62337 37962 ft 527 kts 88°
2026-04-25 19:52 54.05311 -28.49971 37965 ft 527 kts 88°
2026-04-25 19:52 54.05666 -28.37496 37962 ft 527 kts 88°
2026-04-25 19:53 54.06009 -28.25026 37965 ft 528 kts 88°
2026-04-25 19:53 54.06340 -28.12546 37963 ft 528 kts 88°
2026-04-25 19:54 54.06657 -28.00056 37967 ft 528 kts 88°
2026-04-25 19:54 54.06962 -27.87543 37966 ft 528 kts 88°
2026-04-25 19:55 54.07254 -27.75055 37974 ft 528 kts 89°
2026-04-25 19:55 54.07533 -27.62553 37974 ft 529 kts 89°
2026-04-25 19:56 54.07799 -27.50038 37970 ft 529 kts 89°
2026-04-25 19:56 54.08052 -27.37527 37973 ft 529 kts 89°
2026-04-25 19:57 54.08292 -27.24986 37969 ft 529 kts 89°
2026-04-25 19:57 54.08519 -27.12457 37973 ft 529 kts 89°
2026-04-25 19:58 54.08734 -26.99928 37976 ft 530 kts 89°
2026-04-25 19:58 54.08935 -26.87386 37976 ft 530 kts 89°
2026-04-25 19:59 54.09123 -26.74911 37976 ft 530 kts 89°
2026-04-25 19:59 54.09298 -26.62361 37972 ft 530 kts 89°
2026-04-25 20:00 54.09461 -26.49795 37973 ft 530 kts 90°
2026-04-25 20:00 54.09610 -26.37238 37978 ft 530 kts 90°
2026-04-25 20:01 54.09810 -26.18390 37974 ft 531 kts 90°
2026-04-25 20:01 54.09926 -26.05827 37977 ft 531 kts 90°
2026-04-25 20:02 54.10030 -25.93244 37977 ft 531 kts 90°
2026-04-25 20:02 54.10121 -25.80649 37980 ft 531 kts 90°
2026-04-25 20:03 54.10199 -25.68071 37980 ft 531 kts 90°
2026-04-25 20:03 54.10263 -25.55469 37975 ft 531 kts 90°
2026-04-25 20:04 54.10314 -25.42875 37976 ft 531 kts 90°
2026-04-25 20:04 54.10352 -25.30282 37979 ft 531 kts 91°
2026-04-25 20:05 54.10377 -25.17696 37980 ft 531 kts 91°
2026-04-25 20:05 54.10389 -25.05092 37980 ft 531 kts 91°
2026-04-25 20:06 54.10388 -24.92504 37984 ft 531 kts 91°
2026-04-25 20:06 54.10374 -24.79915 37985 ft 531 kts 91°
2026-04-25 20:07 54.10346 -24.67321 37986 ft 531 kts 91°
2026-04-25 20:07 54.10306 -24.54814 37989 ft 531 kts 91°
2026-04-25 20:08 54.10252 -24.42224 37986 ft 531 kts 91°
2026-04-25 20:08 54.10185 -24.29635 37991 ft 531 kts 92°
2026-04-25 20:09 54.10105 -24.17044 37994 ft 531 kts 92°
2026-04-25 20:09 54.10012 -24.04469 37991 ft 531 kts 92°
2026-04-25 20:10 54.09906 -23.91872 37990 ft 531 kts 92°
2026-04-25 20:10 54.09786 -23.79300 37992 ft 531 kts 92°
2026-04-25 20:11 54.09654 -23.66705 37993 ft 531 kts 92°
2026-04-25 20:11 54.09508 -23.54127 37996 ft 531 kts 92°
2026-04-25 20:12 54.09350 -23.41566 37996 ft 531 kts 92°
2026-04-25 20:12 54.09236 -23.33150 37997 ft 531 kts 92°
2026-04-25 20:13 54.08993 -23.16426 38004 ft 530 kts 93°
2026-04-25 20:13 54.08796 -23.03871 38004 ft 530 kts 93°
2026-04-25 20:14 54.08585 -22.91313 38003 ft 530 kts 93°
2026-04-25 20:14 54.08361 -22.78763 38008 ft 530 kts 93°
2026-04-25 20:15 54.08124 -22.66219 37999 ft 530 kts 94°
2026-04-25 20:15 54.07875 -22.53685 38012 ft 530 kts 94°
2026-04-25 20:16 54.07612 -22.41160 38010 ft 529 kts 94°
2026-04-25 20:16 54.07337 -22.28622 38010 ft 529 kts 94°
2026-04-25 20:17 54.07048 -22.16099 38009 ft 529 kts 94°
2026-04-25 20:17 54.06747 -22.03589 38008 ft 529 kts 94°
2026-04-25 20:18 54.06433 -21.91073 38014 ft 529 kts 94°
2026-04-25 20:18 54.06105 -21.78555 38014 ft 529 kts 94°
2026-04-25 20:19 54.05764 -21.66049 38020 ft 529 kts 95°
2026-04-25 20:19 54.05414 -21.53630 38021 ft 529 kts 95°
2026-04-25 20:20 54.05047 -21.41125 38022 ft 529 kts 95°
2026-04-25 20:20 54.04668 -21.28621 38024 ft 529 kts 95°
2026-04-25 20:21 54.04277 -21.16134 38030 ft 528 kts 95°
2026-04-25 20:21 54.03874 -21.03667 38028 ft 528 kts 95°
2026-04-25 20:22 54.03596 -20.95320 38033 ft 528 kts 95°
2026-04-25 20:22 54.03024 -20.78706 38036 ft 528 kts 95°
2026-04-25 20:23 54.02582 -20.66247 38038 ft 527 kts 95°
2026-04-25 20:23 54.02126 -20.53784 38035 ft 527 kts 96°
2026-04-25 20:24 54.01658 -20.41356 38043 ft 527 kts 96°
2026-04-25 20:24 54.01177 -20.28917 38056 ft 527 kts 96°
2026-04-25 20:25 54.00684 -20.16495 38052 ft 527 kts 96°
2026-04-25 20:25 54.00179 -20.04071 38047 ft 527 kts 96°
2026-04-25 20:26 54.00172 -19.91678 38059 ft 528 kts 90°
2026-04-25 20:26 54.00396 -19.79189 38061 ft 528 kts 90°
2026-04-25 20:27 54.00643 -19.66713 38062 ft 528 kts 90°
2026-04-25 20:27 54.00874 -19.54154 38068 ft 528 kts 90°
2026-04-25 20:28 54.01080 -19.41749 38072 ft 528 kts 90°
2026-04-25 20:28 54.01271 -19.29278 38071 ft 528 kts 90°
2026-04-25 20:29 54.01450 -19.16802 38073 ft 527 kts 91°
2026-04-25 20:29 54.01616 -19.04341 38075 ft 527 kts 91°
2026-04-25 20:30 54.01769 -18.91862 38077 ft 527 kts 91°
2026-04-25 20:30 54.01909 -18.79409 38080 ft 527 kts 91°
2026-04-25 20:31 54.02016 -18.69058 38083 ft 526 kts 91°
2026-04-25 20:31 54.02132 -18.56621 38086 ft 526 kts 91°
2026-04-25 20:32 54.02203 -18.48299 38089 ft 526 kts 91°
2026-04-25 20:32 54.02339 -18.29877 38093 ft 526 kts 91°
2026-04-25 20:33 54.02411 -18.18128 38095 ft 525 kts 92°
2026-04-25 20:33 54.02465 -18.07725 38095 ft 525 kts 92°
2026-04-25 20:34 54.02526 -17.93287 38098 ft 525 kts 92°
2026-04-25 20:34 54.02564 -17.80873 38104 ft 525 kts 92°
2026-04-25 20:35 54.02589 -17.68454 38104 ft 525 kts 92°
2026-04-25 20:35 54.02602 -17.56057 38100 ft 524 kts 92°
2026-04-25 20:36 54.02601 -17.43643 38106 ft 524 kts 92°
2026-04-25 20:36 54.02588 -17.31234 38112 ft 524 kts 93°
2026-04-25 20:37 54.02563 -17.18843 38108 ft 524 kts 93°
2026-04-25 20:37 54.02524 -17.06450 38123 ft 524 kts 93°
2026-04-25 20:38 54.02473 -16.94058 38126 ft 524 kts 93°
2026-04-25 20:38 54.02409 -16.81677 38112 ft 523 kts 93°
2026-04-25 20:39 54.02333 -16.69303 38124 ft 523 kts 94°
2026-04-25 20:39 54.02275 -16.61102 38122 ft 523 kts 94°
2026-04-25 20:40 54.02142 -16.44629 38129 ft 523 kts 94°
2026-04-25 20:40 54.02028 -16.32249 38133 ft 523 kts 94°
2026-04-25 20:41 54.01901 -16.19896 38136 ft 523 kts 94°
2026-04-25 20:41 54.01761 -16.07533 38139 ft 523 kts 94°
2026-04-25 20:42 54.01608 -15.95177 38135 ft 523 kts 94°
2026-04-25 20:42 54.01443 -15.82813 38139 ft 523 kts 94°
2026-04-25 20:43 54.01265 -15.70462 38139 ft 523 kts 95°
2026-04-25 20:43 54.01075 -15.58110 38145 ft 523 kts 95°
2026-04-25 20:44 54.00872 -15.45751 38146 ft 523 kts 95°
2026-04-25 20:44 54.00656 -15.33410 38149 ft 522 kts 95°
2026-04-25 20:45 54.00428 -15.21070 38151 ft 522 kts 95°
2026-04-25 20:45 54.00187 -15.08726 38152 ft 522 kts 95°
2026-04-25 20:46 53.99945 -14.96385 38158 ft 523 kts 94°
2026-04-25 20:46 53.99952 -14.84019 38162 ft 523 kts 92°
2026-04-25 20:47 54.00053 -14.71659 38161 ft 523 kts 92°
2026-04-25 20:47 54.00108 -14.59275 38165 ft 523 kts 93°
2026-04-25 20:48 54.00118 -14.47008 38163 ft 523 kts 93°
2026-04-25 20:48 54.00106 -14.34663 38168 ft 523 kts 93°
2026-04-25 20:49 54.00082 -14.22307 38171 ft 522 kts 93°
2026-04-25 20:49 54.00047 -14.09961 38171 ft 522 kts 93°
2026-04-25 20:50 53.99611 -13.99771 38168 ft 517 kts 104°
2026-04-25 20:50 53.97664 -13.88093 38176 ft 512 kts 112°
2026-04-25 20:51 53.95350 -13.76651 38180 ft 512 kts 113°
2026-04-25 20:51 53.92974 -13.65241 38178 ft 512 kts 113°
2026-04-25 20:52 53.91011 -13.55777 38184 ft 512 kts 112°
2026-04-25 20:52 53.88254 -13.42447 38184 ft 512 kts 112°
2026-04-25 20:53 53.85889 -13.31048 38185 ft 512 kts 112°
2026-04-25 20:53 53.83530 -13.19745 38188 ft 513 kts 112°
2026-04-25 20:54 53.81143 -13.08378 38191 ft 513 kts 113°
2026-04-25 20:54 53.78745 -12.97024 38193 ft 513 kts 113°
2026-04-25 20:55 53.76334 -12.85670 38193 ft 513 kts 113°
2026-04-25 20:55 53.73912 -12.74327 38193 ft 513 kts 113°
2026-04-25 20:56 53.71480 -12.63000 38198 ft 513 kts 113°
2026-04-25 20:56 53.69037 -12.51689 38197 ft 513 kts 113°
2026-04-25 20:57 53.66582 -12.40379 38197 ft 513 kts 113°
2026-04-25 20:57 53.64116 -12.29090 38200 ft 513 kts 113°
2026-04-25 20:58 53.61639 -12.17805 38203 ft 513 kts 113°
2026-04-25 20:58 53.59151 -12.06538 38209 ft 513 kts 113°
2026-04-25 20:59 53.56656 -11.95294 38210 ft 513 kts 113°
2026-04-25 20:59 53.54143 -11.84034 38204 ft 513 kts 113°
2026-04-25 21:00 53.52051 -11.74702 38203 ft 513 kts 113°
2026-04-25 21:01 53.47847 -11.56080 38209 ft 513 kts 114°
2026-04-25 21:01 53.45301 -11.44882 38209 ft 513 kts 114°
2026-04-25 21:02 53.42745 -11.33699 38209 ft 513 kts 114°
2026-04-25 21:02 53.40181 -11.22541 38218 ft 513 kts 114°
2026-04-25 21:03 53.37608 -11.11398 38214 ft 513 kts 114°
2026-04-25 21:03 53.35018 -11.00245 38217 ft 514 kts 114°
2026-04-25 21:04 53.32419 -10.89110 38210 ft 514 kts 114°
2026-04-25 21:04 53.29811 -10.77995 38214 ft 514 kts 114°
2026-04-25 21:05 53.27188 -10.66874 38214 ft 514 kts 114°
2026-04-25 21:05 53.24557 -10.55772 38218 ft 514 kts 114°
2026-04-25 21:06 53.21933 -10.44763 38215 ft 514 kts 114°
2026-04-25 21:06 53.19282 -10.33694 38214 ft 514 kts 114°
2026-04-25 21:07 53.16621 -10.22637 38221 ft 514 kts 114°
2026-04-25 21:07 53.13948 -10.11588 38221 ft 514 kts 114°
2026-04-25 21:08 53.11265 -10.00557 38222 ft 514 kts 114°
2026-04-25 21:08 53.08569 -9.89527 38222 ft 514 kts 114°
2026-04-25 21:09 53.04511 -9.73024 38217 ft 514 kts 114°
2026-04-25 21:09 53.01797 -9.62058 38215 ft 514 kts 115°
2026-04-25 21:10 52.99064 -9.51072 38210 ft 514 kts 115°
2026-04-25 21:10 52.96325 -9.40112 38218 ft 514 kts 115°
2026-04-25 21:11 52.93602 -9.29269 38215 ft 514 kts 115°
2026-04-25 21:11 52.90842 -9.18335 38213 ft 514 kts 115°
2026-04-25 21:12 52.88071 -9.07411 38212 ft 514 kts 115°
2026-04-25 21:12 52.85758 -8.98335 38211 ft 515 kts 115°
2026-04-25 21:13 52.82497 -8.85597 38211 ft 515 kts 115°
2026-04-25 21:13 52.79690 -8.74690 38211 ft 515 kts 115°
2026-04-25 21:14 52.76877 -8.63816 38207 ft 515 kts 115°
2026-04-25 21:14 52.74055 -8.52958 38209 ft 515 kts 115°
2026-04-25 21:15 52.71221 -8.42105 38206 ft 515 kts 115°
2026-04-25 21:15 52.68375 -8.31266 38202 ft 515 kts 115°
2026-04-25 21:16 52.65518 -8.20436 38201 ft 515 kts 115°
2026-04-25 21:16 52.62655 -8.09626 38205 ft 515 kts 115°
2026-04-25 21:17 52.59799 -7.98884 38199 ft 515 kts 115°
2026-04-25 21:17 52.56910 -7.88077 38202 ft 516 kts 115°
2026-04-25 21:18 52.54011 -7.77289 38204 ft 516 kts 116°
2026-04-25 21:18 52.51104 -7.66519 38203 ft 516 kts 116°
2026-04-25 21:19 52.48184 -7.55750 38200 ft 516 kts 116°
2026-04-25 21:19 52.45256 -7.45007 38210 ft 516 kts 116°
2026-04-25 21:20 52.42812 -7.36075 38208 ft 516 kts 116°
2026-04-25 21:20 52.39370 -7.23555 38209 ft 516 kts 116°
2026-04-25 21:21 52.36435 -7.12931 38211 ft 516 kts 116°
2026-04-25 21:21 52.33470 -7.02248 38209 ft 516 kts 116°
2026-04-25 21:22 52.30488 -6.91556 38210 ft 516 kts 116°
2026-04-25 21:22 52.27501 -6.80891 38214 ft 517 kts 116°
2026-04-25 21:23 52.24500 -6.70224 38211 ft 517 kts 116°
2026-04-25 21:23 52.21489 -6.59573 38212 ft 517 kts 116°
2026-04-25 21:24 52.18464 -6.48920 38215 ft 517 kts 116°
2026-04-25 21:24 52.15433 -6.38292 38219 ft 517 kts 116°
2026-04-25 21:25 52.12407 -6.27734 38217 ft 517 kts 116°
2026-04-25 21:25 52.09382 -6.17222 38219 ft 518 kts 116°
2026-04-25 21:26 52.06320 -6.06627 38216 ft 518 kts 116°
2026-04-25 21:26 52.03276 -5.96018 38223 ft 518 kts 116°
2026-04-25 21:27 52.00293 -5.85362 38223 ft 518 kts 116°
2026-04-25 21:27 51.97306 -5.74731 38223 ft 518 kts 116°
2026-04-25 21:28 51.94321 -5.64200 38222 ft 517 kts 116°
2026-04-25 21:28 51.91299 -5.53610 38221 ft 517 kts 116°
2026-04-25 21:29 51.88269 -5.43049 38221 ft 517 kts 116°
2026-04-25 21:29 51.85228 -5.32491 38225 ft 517 kts 116°
2026-04-25 21:30 51.82181 -5.21955 38223 ft 517 kts 116°
2026-04-25 21:30 51.79644 -5.13221 38226 ft 517 kts 116°
2026-04-25 21:31 51.76103 -5.00904 38224 ft 517 kts 114°
2026-04-25 21:31 51.73333 -4.90297 38225 ft 517 kts 113°
2026-04-25 21:32 51.70575 -4.79595 38224 ft 516 kts 114°
2026-04-25 21:32 51.67778 -4.68947 38224 ft 516 kts 114°
2026-04-25 21:33 51.64942 -4.58309 38227 ft 516 kts 114°
2026-04-25 21:33 51.62098 -4.47712 38228 ft 516 kts 114°
2026-04-25 21:34 51.59244 -4.37121 38226 ft 516 kts 114°
2026-04-25 21:34 51.56378 -4.26525 38222 ft 516 kts 114°
2026-04-25 21:35 51.54051 -4.15614 38226 ft 517 kts 102°
2026-04-25 21:35 51.52654 -4.04284 38222 ft 517 kts 100°
2026-04-25 21:36 51.51397 -3.92932 38223 ft 515 kts 100°
2026-04-25 21:36 51.50158 -3.81767 38225 ft 507 kts 100°
2026-04-25 21:37 51.49313 -3.74333 38231 ft 506 kts 101°
2026-04-25 21:37 51.47780 -3.59508 38235 ft 506 kts 96°
2026-04-25 21:38 51.47073 -3.48288 38238 ft 506 kts 95°
2026-04-25 21:38 51.46533 -3.38950 38236 ft 506 kts 95°
2026-04-25 21:39 51.45880 -3.27707 38237 ft 506 kts 95°
2026-04-25 21:39 51.45208 -3.16505 37384 ft 505 kts 96°
2026-04-25 21:40 51.44863 -3.10860 36220 ft 514 kts 96°
2026-04-25 21:40 51.44508 -3.05103 35104 ft 522 kts 96°
2026-04-25 21:40 51.44144 -2.99273 34020 ft 528 kts 96°
2026-04-25 21:40 51.43776 -2.93405 32904 ft 531 kts 96°
2026-04-25 21:41 51.43404 -2.87514 31865 ft 531 kts 96°
2026-04-25 21:41 51.43029 -2.81631 30815 ft 533 kts 96°
2026-04-25 21:41 51.42649 -2.75712 29686 ft 534 kts 96°
2026-04-25 21:41 51.42272 -2.69881 28795 ft 530 kts 96°
2026-04-25 21:42 51.41887 -2.63984 28158 ft 522 kts 96°
2026-04-25 21:42 51.41509 -2.58242 27502 ft 515 kts 96°
2026-04-25 21:42 51.41132 -2.52561 26843 ft 510 kts 96°
2026-04-25 21:42 51.40762 -2.47026 26209 ft 504 kts 96°
2026-04-25 21:43 51.40391 -2.41457 25577 ft 499 kts 96°
2026-04-25 21:43 51.40020 -2.35964 24965 ft 494 kts 96°
2026-04-25 21:43 51.39648 -2.30523 24422 ft 484 kts 96°
2026-04-25 21:43 51.39290 -2.25332 23804 ft 456 kts 96°
2026-04-25 21:44 51.38942 -2.20317 22944 ft 453 kts 96°
2026-04-25 21:44 51.38594 -2.15357 22562 ft 443 kts 96°
2026-04-25 21:44 51.37913 -2.05694 21516 ft 433 kts 96°
2026-04-25 21:45 51.37574 -2.00911 20961 ft 429 kts 96°
2026-04-25 21:45 51.37351 -1.97785 20594 ft 427 kts 96°
2026-04-25 21:45 51.36901 -1.91543 19850 ft 423 kts 96°
2026-04-25 21:45 51.36565 -1.86883 19313 ft 420 kts 96°
2026-04-25 21:46 51.36232 -1.82287 18786 ft 417 kts 96°
2026-04-25 21:46 51.35896 -1.77678 18201 ft 414 kts 96°
2026-04-25 21:46 51.35561 -1.73102 17647 ft 410 kts 96°
2026-04-25 21:46 51.35230 -1.68604 17123 ft 405 kts 96°
2026-04-25 21:47 51.34900 -1.64148 16589 ft 401 kts 96°
2026-04-25 21:47 51.34574 -1.59757 16068 ft 396 kts 96°
2026-04-25 21:47 51.34248 -1.55397 15556 ft 392 kts 96°
2026-04-25 21:47 51.33926 -1.51093 15057 ft 387 kts 97°
2026-04-25 21:48 51.33605 -1.46860 14734 ft 378 kts 97°
2026-04-25 21:48 51.33292 -1.42752 14502 ft 367 kts 97°
2026-04-25 21:48 51.32995 -1.38866 14292 ft 356 kts 97°
2026-04-25 21:48 51.32676 -1.35000 14218 ft 340 kts 99°
2026-04-25 21:49 51.31966 -1.31491 14224 ft 322 kts 118°
2026-04-25 21:49 51.30866 -1.28637 14241 ft 313 kts 124°
2026-04-25 21:49 51.29618 -1.25773 14227 ft 314 kts 125°
2026-04-25 21:49 51.28372 -1.22957 14222 ft 303 kts 126°
2026-04-25 21:50 51.27184 -1.20281 14229 ft 288 kts 126°
2026-04-25 21:50 51.26047 -1.17720 14241 ft 279 kts 126°
2026-04-25 21:50 51.24925 -1.15198 14241 ft 278 kts 126°
2026-04-25 21:50 51.24185 -1.13537 14242 ft 279 kts 126°
2026-04-25 21:51 51.22682 -1.10168 14243 ft 279 kts 126°
2026-04-25 21:51 51.21559 -1.07651 14225 ft 279 kts 125°
2026-04-25 21:51 51.20643 -1.04939 14241 ft 279 kts 109°
2026-04-25 21:51 51.20343 -1.01902 14229 ft 277 kts 85°
2026-04-25 21:52 51.20707 -0.98901 14241 ft 276 kts 74°
2026-04-25 21:52 51.21223 -0.95988 14229 ft 277 kts 73°
2026-04-25 21:52 51.21770 -0.93002 14244 ft 277 kts 73°
2026-04-25 21:52 51.22301 -0.90099 14119 ft 270 kts 73°
2026-04-25 21:53 51.22824 -0.87240 13670 ft 274 kts 73°
2026-04-25 21:53 51.23359 -0.84316 13246 ft 276 kts 73°
2026-04-25 21:53 51.23894 -0.81381 12893 ft 275 kts 73°
2026-04-25 21:53 51.24433 -0.78417 12534 ft 274 kts 73°
2026-04-25 21:54 51.24956 -0.75543 12193 ft 273 kts 73°
2026-04-25 21:54 51.25483 -0.72637 11853 ft 272 kts 73°
2026-04-25 21:54 51.26010 -0.69732 11522 ft 271 kts 73°
2026-04-25 21:54 51.26531 -0.66850 11211 ft 269 kts 73°
2026-04-25 21:55 51.27046 -0.64000 10873 ft 268 kts 73°
2026-04-25 21:55 51.27435 -0.61849 10632 ft 267 kts 73°
2026-04-25 21:55 51.27949 -0.58991 10339 ft 265 kts 73°
2026-04-25 21:55 51.28462 -0.56207 10244 ft 260 kts 71°
2026-04-25 21:56 51.29342 -0.53718 10240 ft 259 kts 45°
2026-04-25 21:56 51.30267 -0.52541 10142 ft 258 kts 28°
2026-04-25 21:56 51.32589 -0.51788 9517 ft 260 kts 351°
2026-04-25 21:56 51.34257 -0.52814 8995 ft 257 kts 323°
2026-04-25 21:57 51.35396 -0.54925 8480 ft 249 kts 295°
2026-04-25 21:57 51.35802 -0.57595 8002 ft 251 kts 274°
2026-04-25 21:57 51.35874 -0.60390 7613 ft 253 kts 271°
2026-04-25 21:57 51.35897 -0.63209 7246 ft 254 kts 271°
2026-04-25 21:58 51.35914 -0.66031 6876 ft 254 kts 271°
2026-04-25 21:58 51.35933 -0.68870 6515 ft 255 kts 271°
2026-04-25 21:58 51.35952 -0.71720 6132 ft 256 kts 271°
2026-04-25 21:58 51.35970 -0.74564 5743 ft 256 kts 271°
2026-04-25 21:59 51.35993 -0.77406 5372 ft 256 kts 271°
2026-04-25 21:59 51.36354 -0.80143 4971 ft 247 kts 297°
2026-04-25 21:59 51.37416 -0.82161 4583 ft 233 kts 327°
2026-04-25 22:00 51.40356 -0.83156 4005 ft 203 kts 360°
2026-04-25 22:00 51.41728 -0.83184 3969 ft 193 kts
2026-04-25 22:00 51.43034 -0.83196 3804 ft 190 kts
2026-04-25 22:00 51.44310 -0.82758 3476 ft 189 kts 30°
2026-04-25 22:01 51.45226 -0.81302 3165 ft 187 kts 56°
2026-04-25 22:01 51.45907 -0.79551 2992 ft 185 kts 60°
2026-04-25 22:01 51.46580 -0.77779 2993 ft 186 kts 58°
2026-04-25 22:01 51.47045 -0.76594 3001 ft 186 kts 58°
2026-04-25 22:02 51.47649 -0.74055 3013 ft 186 kts 85°
2026-04-25 22:02 51.47681 -0.72003 3002 ft 184 kts 90°
2026-04-25 22:02 51.47679 -0.69945 2875 ft 185 kts 89°
2026-04-25 22:02 51.47686 -0.67893 2501 ft 182 kts 90°
2026-04-25 22:03 51.47690 -0.65925 2246 ft 171 kts 90°
2026-04-25 22:03 51.47697 -0.64066 2020 ft 162 kts 90°
2026-04-25 22:03 51.47701 -0.62272 1814 ft 160 kts 90°
2026-04-25 22:03 51.47707 -0.60484 1587 ft 159 kts 90°
2026-04-25 22:04 51.47713 -0.58770 1369 ft 148 kts 90°
2026-04-25 22:04 51.47718 -0.57203 1175 ft 137 kts 91°
2026-04-25 22:04 51.47723 -0.55695 1007 ft 135 kts 91°
2026-04-25 22:04 51.47735 -0.54184 812 ft 136 kts 90°
2026-04-25 22:05 51.47738 -0.52667 625 ft 136 kts 92°
2026-04-25 22:05 51.47751 -0.51145 413 ft 136 kts 90°
2026-04-25 22:05 51.47753 -0.49632 237 ft 136 kts 93°
2026-04-25 22:05 51.47756 -0.48109 118 ft 137 kts 92°
2026-04-25 22:06 51.47755 -0.46669 99 ft 108 kts 89°
2026-04-25 22:06 51.47760 -0.45927 94 ft 37 kts 89°
2026-04-25 22:06 51.47760 -0.45554 94 ft 17 kts 91°
2026-04-25 22:06 51.47697 -0.45468 93 ft 14 kts 182°
2026-04-25 22:07 51.47606 -0.45495 95 ft 9 kts 224°
2026-04-25 22:07 51.47598 -0.45551 96 ft 9 kts 264°
2026-04-25 22:07 51.47595 -0.45718 96 ft 13 kts 269°
2026-04-25 22:07 51.47594 -0.45885 95 ft 17 kts 270°
2026-04-25 22:08 51.47594 -0.46087 96 ft 19 kts 270°
2026-04-25 22:08 51.47593 -0.46318 96 ft 22 kts 270°
2026-04-25 22:08 51.47593 -0.46579 94 ft 25 kts 270°
2026-04-25 22:08 51.47585 -0.46860 96 ft 27 kts 264°
2026-04-25 22:09 51.47582 -0.47146 96 ft 18 kts 269°
2026-04-25 22:09 51.47582 -0.47314 96 ft 16 kts 270°
2026-04-25 22:09 51.47581 -0.47514 96 ft 19 kts 270°
2026-04-25 22:09 51.47580 -0.47745 96 ft 22 kts 269°
2026-04-25 22:10 51.47579 -0.47997 96 ft 24 kts 270°
2026-04-25 22:10 51.47578 -0.48202 96 ft 26 kts 270°
2026-04-25 22:10 51.47551 -0.48368 95 ft 10 kts 194°
2026-04-25 22:10 51.47465 -0.48363 94 ft 16 kts 179°
2026-04-25 22:11 51.47377 -0.48362 93 ft 10 kts 180°
2026-04-25 22:11 51.47322 -0.48356 94 ft 3 kts 156°
2026-04-25 22:11 51.47314 -0.48329 95 ft 3 kts 102°
2026-04-25 22:11 51.47313 -0.48286 93 ft 4 kts 90°
2026-04-25 22:12 51.47313 -0.48262 93 ft 2 kts 88°
2026-04-25 22:12 51.47314 -0.48242 93 ft 0 kts 89°